Location: Marcé
(47.5801°N, 0.3280°W)
Time: 17:13:34
(UTC+01:00)

SR - Pass Details

Date: 08 December 2021
Orbit: 582 x 872 km, 66.7° (Epoch: 22 January)

Event Time Altitude Azimuth Distance (km) Brightness Sun altitude
Rises 09:17:50 0° 311° (NW) 2,840 ? 4.7°
Reaches altitude 10° 09:20:38 10° 292° (WNW) 1,961 ? 5.0°
Maximum altitude 09:23:33 18° 250° (WSW) 1,559 ? 5.4°
Drops below altitude 10° 09:26:33 10° 209° (SSW) 2,036 ? 5.8°
Sets 09:29:33 0° 190° (S) 2,997 ? 6.1°
